Weather History for Kivalina, AK

Change the Weather History Date:

Sunday, July 21, 2013

  Actual Average Record
Temperature  
Mean Temperature 49 °F -  
Max Temperature 54 °F - - ()
Min Temperature 44 °F - - ()
Degree Days  
Heating Degree Days 16    
Moisture  
Dew Point 48 °F    
Average Humidity 99    
Maximum Humidity 100    
Minimum Humidity 90    
Precipitation  
Precipitation 0.00 in - - ()
Sea Level Pressure  
Sea Level Pressure 30.04 in    
Wind  
Wind Speed 13 mph (South)    
Max Wind Speed 20 mph    
Max Gust Speed -    
Visibility 4 miles    
Events Fog , Rain    
T = Trace of Precipitation, MM = Missing Value Source: NWS Daily Summary

Daily Weather History Graph

Daily Weather History Graph

Search for Another Location

Airport:

Trip Planner

Search our weather history database for the weather conditions in past years. The results will help you decide how hot, cold, wet, or windy it might be!

Date:

Astronomy

Jul. 21, 2013 Rise Set
Actual Time 4:18 AM AKDT 1:44 AM AKDT
Civil Twilight Sun does not rise Sun does not rise
Nautical Twilight Sun does not rise Sun does not rise
Astronomical Twilight Sun does not rise Sun does not rise
Moon 11:47 PM AKDT (7/21) 3:59 AM AKDT (7/21)
Length of Visible Light 24h 00m
Length of Day
21h 25m
Waxing Gibbous, 99% of the Moon is Illuminated
Jul 21
Waxing Gibbous
Jul 22
Full
Jul 29
Last Quarter
Aug 6
New
Aug 14
First Quarter

Hourly Weather History & Observations

Time (AKDT) Temp. Windchill Dew Point Humidity Pressure Visibility Wind Dir Wind Speed Gust Speed Precip Events Conditions
12:53 AM 46.9 °F - 46.9 °F 100% 30.03 in 5.0 mi SSW 13.8 mph - 0.00 in   Overcast
1:53 AM 46.0 °F 39.0 °F 46.0 °F 100% 30.03 in 7.0 mi SSW 17.3 mph - 0.00 in   Overcast
2:53 AM 46.0 °F 39.9 °F 46.0 °F 100% 30.04 in 6.0 mi SSW 13.8 mph - N/A   Overcast
3:53 AM 46.0 °F 40.6 °F 46.0 °F 100% 30.04 in 5.0 mi South 11.5 mph - N/A   Overcast
4:02 AM 44.6 °F 39.2 °F 44.6 °F 100% 30.04 in 3.0 mi South 10.4 mph - N/A   Overcast
4:10 AM 44.6 °F 39.2 °F 44.6 °F 100% 30.04 in 1.8 mi South 10.4 mph - N/A   Overcast
4:53 AM 45.0 °F 40.1 °F 45.0 °F 100% 30.05 in 1.5 mi South 9.2 mph - N/A   Overcast
5:53 AM 46.0 °F 41.9 °F 46.0 °F 100% 30.06 in 1.5 mi South 8.1 mph - 0.00 in   Overcast
6:14 AM 46.4 °F 40.7 °F 46.4 °F 100% 30.05 in 2.5 mi South 12.7 mph - N/A   Overcast
6:24 AM 46.4 °F 40.7 °F 46.4 °F 100% 30.05 in 4.0 mi SSW 12.7 mph - N/A   Overcast
6:32 AM 46.4 °F 40.7 °F 46.4 °F 100% 30.05 in 1.8 mi South 12.7 mph - 0.00 in Rain Light Rain
6:41 AM 46.4 °F 40.7 °F 46.4 °F 100% 30.05 in 2.5 mi South 12.7 mph - 0.00 in   Overcast
6:51 AM 46.4 °F 41.1 °F 46.4 °F 100% 30.05 in 1.8 mi South 11.5 mph - 0.00 in   Overcast
6:53 AM 46.0 °F 40.2 °F 46.0 °F 100% 30.05 in 1.8 mi South 12.7 mph - 0.00 in   Overcast
7:00 AM 46.4 °F 40.7 °F 46.4 °F 100% 30.04 in 2.5 mi South 12.7 mph - N/A   Overcast
7:08 AM 46.4 °F 40.7 °F 46.4 °F 100% 30.04 in 4.0 mi South 12.7 mph - N/A   Overcast
7:22 AM 46.4 °F 40.4 °F 46.4 °F 100% 30.04 in 2.5 mi South 13.8 mph - N/A   Overcast
7:33 AM 46.4 °F 40.4 °F 46.4 °F 100% 30.04 in 3.0 mi South 13.8 mph - N/A   Overcast
7:44 AM 46.4 °F 40.4 °F 46.4 °F 100% 30.05 in 5.0 mi South 13.8 mph - N/A   Overcast
7:53 AM 46.0 °F 40.2 °F 46.0 °F 100% 30.05 in 5.0 mi South 12.7 mph - N/A   Overcast
8:27 AM 46.4 °F 40.7 °F 46.4 °F 100% 30.05 in 1.8 mi South 12.7 mph - N/A   Overcast
8:34 AM 46.4 °F 41.1 °F 46.4 °F 100% 30.05 in 1.2 mi South 11.5 mph - N/A   Overcast
8:45 AM 46.4 °F 41.1 °F 46.4 °F 100% 30.05 in 0.8 mi South 11.5 mph - N/A   Overcast
8:53 AM 46.0 °F 40.6 °F 46.0 °F 100% 30.05 in 0.5 mi South 11.5 mph - N/A Fog Fog
9:32 AM 46.4 °F 40.7 °F 46.4 °F 100% 30.05 in 1.5 mi SSE 12.7 mph - N/A   Overcast
9:39 AM 46.4 °F 40.4 °F 46.4 °F 100% 30.05 in 3.0 mi South 13.8 mph - N/A   Overcast
9:50 AM 46.4 °F 40.4 °F 46.4 °F 100% 30.06 in 4.0 mi SSE 13.8 mph - N/A   Overcast
9:53 AM 46.9 °F - 46.9 °F 100% 30.06 in 5.0 mi SSE 15.0 mph - N/A   Overcast
10:07 AM 46.4 °F 40.1 °F 46.4 °F 100% 30.06 in 5.0 mi South 15.0 mph - N/A   Overcast
10:53 AM 46.9 °F - 46.9 °F 100% 30.06 in 4.0 mi South 12.7 mph - N/A   Overcast
11:00 AM 46.4 °F 40.7 °F 46.4 °F 100% 30.07 in 3.0 mi South 12.7 mph - N/A   Overcast
11:15 AM 46.4 °F 40.7 °F 46.4 °F 100% 30.06 in 2.0 mi South 12.7 mph - N/A   Overcast
11:35 AM 46.4 °F 41.5 °F 46.4 °F 100% 30.06 in 1.5 mi South 10.4 mph - N/A   Overcast
11:51 AM 46.4 °F 41.1 °F 46.4 °F 100% 30.06 in 3.0 mi South 11.5 mph - N/A   Overcast
11:52 AM 46.9 °F - 46.9 °F 100% 30.06 in 3.0 mi South 10.4 mph - N/A   Overcast
12:53 PM 46.9 °F - 46.9 °F 100% 30.07 in 4.0 mi South 13.8 mph - N/A   Overcast
1:15 PM 48.2 °F - 48.2 °F 100% 30.06 in 7.0 mi South 10.4 mph - N/A   Overcast
1:53 PM 48.9 °F - 48.0 °F 97% 30.06 in 7.0 mi SSE 10.4 mph - N/A   Overcast
2:53 PM 48.9 °F - 48.0 °F 97% 30.06 in 8.0 mi South 15.0 mph - N/A   Overcast
3:53 PM 51.1 °F - 50.0 °F 96% 30.05 in 8.0 mi SSE 12.7 mph - N/A   Overcast
4:53 PM 52.0 °F - 50.0 °F 93% 30.04 in 8.0 mi SSE 17.3 mph - N/A   Overcast
5:53 PM 52.0 °F - 50.0 °F 93% 30.03 in 8.0 mi SSE 19.6 mph - N/A   Overcast
6:53 PM 54.0 °F - 51.1 °F 90% 30.01 in 7.0 mi SE 16.1 mph - N/A   Overcast
7:01 PM 53.6 °F - 51.8 °F 94% 30.01 in 7.0 mi SSE 15.0 mph - N/A   Overcast
7:53 PM 54.0 °F - 52.0 °F 93% 30.00 in 6.0 mi SSE 15.0 mph - N/A   Overcast
8:18 PM 53.6 °F - 51.8 °F 94% 30.00 in 7.0 mi SSE 12.7 mph - N/A   Overcast
8:53 PM 53.1 °F - 52.0 °F 96% 30.00 in 7.0 mi SSE 12.7 mph - N/A   Overcast
9:02 PM 53.6 °F - 51.8 °F 94% 30.00 in 7.0 mi SSE 12.7 mph - N/A   Overcast
9:53 PM 53.1 °F - 52.0 °F 96% 29.99 in 6.0 mi SSE 15.0 mph - N/A   Overcast
10:07 PM 53.6 °F - 51.8 °F 94% 29.99 in 6.0 mi SSE 15.0 mph - N/A   Overcast
10:53 PM 48.9 °F - 48.9 °F 100% 29.99 in 6.0 mi SW 8.1 mph - N/A   Overcast
11:53 PM 48.0 °F - 48.0 °F 100% 29.99 in 6.0 mi WSW 3.5 mph - N/A   Overcast